Perryton, TX

4:05 AM CDT on July 23, 2017 (GMT -0500)
Perryton Ochiltree County

Weather History for KPYX - October, 2012

Change the Weather History Date:

Saturday, October 6, 2012

  Actual Average Record
Temperature  
Mean Temperature 40 °F -  
Max Temperature 44 °F 76 °F 92 °F (1979)
Min Temperature 37 °F 45 °F 33 °F (1985)
Degree Days  
Heating Degree Days 24    
Moisture  
Dew Point 32 °F    
Average Humidity 69    
Maximum Humidity 87    
Minimum Humidity 61    
Precipitation  
Precipitation 0.00 in - - ()
Sea Level Pressure  
Sea Level Pressure 30.30 in    
Wind  
Wind Speed 11 mph (ENE)    
Max Wind Speed 15 mph    
Max Gust Speed 20 mph    
Visibility 10 miles    
Events      
Averages and records for this station are not official NWS values.
T = Trace of Precipitation, MM = Missing Value Source: NWS Daily Summary

Daily Weather History Graph

Daily Weather History Graph

Search for Another Location

Airport or City:

Trip Planner

Search our weather history database for the weather conditions in past years. The results will help you decide how hot, cold, wet, or windy it might be!

Date:

Astronomy

Oct. 06, 2012 Rise Set
Actual Time 7:42 AM CDT 7:18 PM CDT
Civil Twilight 7:17 AM CDT 7:44 PM CDT
Nautical Twilight 6:47 AM CDT 8:14 PM CDT
Astronomical Twilight 6:17 AM CDT 8:43 PM CDT
Moon 11:43 PM CDT (10/6) 1:31 PM CDT (10/6)
Length of Visible Light 12h 27m
Length of Day
11h 35m
Waning Gibbous, 65% of the Moon is Illuminated
Oct 6
Waning Gibbous
Oct 8
Last Quarter
Oct 15
New
Oct 21
First Quarter
Oct 29
Full

Hourly Weather History & Observations

Time (CDT) Temp. Windchill Dew Point Humidity Pressure Visibility Wind Dir Wind Speed Gust Speed Precip Events Conditions
12:15 AM 44.6 °F 38.1 °F 32.0 °F 61% 30.30 in 10.0 mi ENE 13.8 mph 19.6 mph N/A   Overcast
12:35 AM 44.6 °F 38.4 °F 32.0 °F 61% 30.30 in 10.0 mi NE 12.7 mph - N/A   Overcast
12:55 AM 44.6 °F 37.8 °F 32.0 °F 61% 30.30 in 10.0 mi NE 15.0 mph - N/A   Overcast
1:15 AM 44.6 °F 38.8 °F 32.0 °F 61% 30.29 in 10.0 mi ENE 11.5 mph - N/A   Overcast
1:55 AM 42.8 °F 35.8 °F 32.0 °F 66% 30.28 in 10.0 mi ENE 13.8 mph - N/A   Overcast
2:15 AM 42.8 °F 35.4 °F 32.0 °F 66% 30.29 in 10.0 mi ENE 15.0 mph - N/A   Overcast
2:35 AM 42.8 °F 37.0 °F 32.0 °F 66% 30.29 in 10.0 mi NE 10.4 mph - N/A   Overcast
2:55 AM 42.8 °F 36.6 °F 32.0 °F 66% 30.28 in 10.0 mi NE 11.5 mph - N/A   Mostly Cloudy
3:15 AM 42.8 °F 37.0 °F 32.0 °F 66% 30.29 in 10.0 mi NE 10.4 mph - N/A   Mostly Cloudy
3:35 AM 42.8 °F 37.5 °F 32.0 °F 66% 30.28 in 10.0 mi ENE 9.2 mph - N/A   Overcast
3:55 AM 42.8 °F 37.0 °F 32.0 °F 66% 30.29 in 10.0 mi NE 10.4 mph - N/A   Overcast
4:35 AM 42.8 °F 37.0 °F 32.0 °F 66% 30.27 in 10.0 mi ENE 10.4 mph - N/A   Overcast
4:55 AM 42.8 °F 37.0 °F 32.0 °F 66% 30.27 in 10.0 mi ENE 10.4 mph - N/A   Overcast
5:15 AM 42.8 °F 37.0 °F 32.0 °F 66% 30.27 in 10.0 mi ENE 10.4 mph - N/A   Overcast
5:35 AM 42.8 °F 37.0 °F 32.0 °F 66% 30.27 in 10.0 mi ENE 10.4 mph - N/A   Overcast
5:55 AM 41.0 °F 34.7 °F 32.0 °F 70% 30.27 in 10.0 mi NE 10.4 mph - N/A   Overcast
6:15 AM 41.0 °F 34.3 °F 32.0 °F 70% 30.27 in 10.0 mi ENE 11.5 mph - N/A   Overcast
6:35 AM 41.0 °F 34.7 °F 32.0 °F 70% 30.28 in 10.0 mi ENE 10.4 mph - N/A   Overcast
6:55 AM 41.0 °F 35.2 °F 32.0 °F 70% 30.28 in 10.0 mi ENE 9.2 mph - N/A   Overcast
7:15 AM 41.0 °F 35.8 °F 32.0 °F 70% 30.28 in 10.0 mi NE 8.1 mph - N/A   Overcast
7:35 AM 41.0 °F 35.2 °F 32.0 °F 70% 30.28 in 10.0 mi ENE 9.2 mph - N/A   Overcast
7:55 AM 41.0 °F 35.2 °F 32.0 °F 70% 30.28 in 10.0 mi ENE 9.2 mph - N/A   Overcast
8:15 AM 41.0 °F 36.4 °F 32.0 °F 70% 30.30 in 10.0 mi ENE 6.9 mph - N/A   Overcast
8:35 AM 41.0 °F 35.2 °F 32.0 °F 70% 30.31 in 10.0 mi NE 9.2 mph - N/A   Overcast
9:15 AM 39.2 °F 33.0 °F 33.8 °F 81% 30.30 in 10.0 mi ENE 9.2 mph - N/A   Overcast
9:35 AM 39.2 °F 33.0 °F 33.8 °F 81% 30.30 in 7.0 mi ENE 9.2 mph - N/A   Overcast
9:55 AM 39.2 °F 33.6 °F 35.6 °F 87% 30.31 in 10.0 mi ENE 8.1 mph - N/A   Overcast
10:15 AM 39.2 °F 32.5 °F 33.8 °F 81% 30.30 in 10.0 mi East 10.4 mph - N/A   Overcast
10:35 AM 41.0 °F 35.2 °F 35.6 °F 81% 30.31 in 10.0 mi ENE 9.2 mph - N/A   Overcast
10:55 AM 41.0 °F 35.8 °F 33.8 °F 76% 30.31 in 10.0 mi East 8.1 mph - N/A   Overcast
11:15 AM 41.0 °F 35.2 °F 33.8 °F 76% 30.31 in 10.0 mi NE 9.2 mph - N/A   Overcast
11:35 AM 41.0 °F 34.7 °F 33.8 °F 76% 30.31 in 10.0 mi NE 10.4 mph - N/A   Overcast
11:55 AM 41.0 °F 35.2 °F 33.8 °F 76% 30.31 in 10.0 mi ENE 9.2 mph - N/A   Overcast
12:15 PM 42.8 °F 37.5 °F 33.8 °F 70% 30.31 in 10.0 mi NE 9.2 mph - N/A   Overcast
12:35 PM 42.8 °F 37.5 °F 32.0 °F 66% 30.31 in 10.0 mi ENE 9.2 mph - N/A   Overcast
12:55 PM 42.8 °F 36.6 °F 32.0 °F 66% 30.31 in 10.0 mi ENE 11.5 mph 16.1 mph N/A   Overcast
1:15 PM 42.8 °F 36.6 °F 32.0 °F 66% 30.31 in 10.0 mi East 11.5 mph - N/A   Overcast
1:35 PM 42.8 °F 36.2 °F 32.0 °F 66% 30.30 in 10.0 mi East 12.7 mph 18.4 mph N/A   Overcast
1:55 PM 42.8 °F 37.0 °F 32.0 °F 66% 30.29 in 10.0 mi ENE 10.4 mph 17.3 mph N/A   Overcast
2:15 PM 42.8 °F 37.0 °F 32.0 °F 66% 30.28 in 10.0 mi East 10.4 mph - N/A   Overcast
2:35 PM 42.8 °F 37.0 °F 30.2 °F 61% 30.28 in 10.0 mi ENE 10.4 mph - N/A   Overcast
2:55 PM 42.8 °F 37.5 °F 30.2 °F 61% 30.27 in 10.0 mi East 9.2 mph - N/A   Overcast
3:15 PM 42.8 °F 37.0 °F 30.2 °F 61% 30.27 in 10.0 mi East 10.4 mph - N/A   Overcast
3:35 PM 42.8 °F 38.0 °F 30.2 °F 61% 30.27 in 10.0 mi ENE 8.1 mph - N/A   Overcast
3:55 PM 42.8 °F 38.0 °F 30.2 °F 61% 30.27 in 10.0 mi NE 8.1 mph - N/A   Overcast
4:15 PM 42.8 °F 38.0 °F 30.2 °F 61% 30.27 in 10.0 mi NE 8.1 mph - N/A   Overcast
4:35 PM 42.8 °F 37.5 °F 32.0 °F 66% 30.26 in 10.0 mi East 9.2 mph - N/A   Overcast
4:55 PM 42.8 °F 38.0 °F 32.0 °F 66% 30.26 in 10.0 mi NE 8.1 mph - N/A   Overcast
5:15 PM 42.8 °F 37.0 °F 32.0 °F 66% 30.27 in 10.0 mi East 10.4 mph - N/A   Overcast
5:35 PM 42.8 °F 37.5 °F 32.0 °F 66% 30.27 in 10.0 mi East 9.2 mph - N/A   Overcast
5:55 PM 42.8 °F 37.0 °F 30.2 °F 61% 30.27 in 10.0 mi ENE 10.4 mph - N/A   Overcast
6:15 PM 42.8 °F 37.5 °F 32.0 °F 66% 30.27 in 10.0 mi ENE 9.2 mph - N/A   Overcast
6:35 PM 42.8 °F 37.0 °F 32.0 °F 66% 30.28 in 10.0 mi ENE 10.4 mph - N/A   Overcast
6:55 PM 42.8 °F 37.0 °F 32.0 °F 66% 30.29 in 10.0 mi ENE 10.4 mph - N/A   Overcast
7:15 PM 42.8 °F 37.0 °F 32.0 °F 66% 30.30 in 10.0 mi ENE 10.4 mph - N/A   Overcast
7:35 PM 41.0 °F 35.8 °F 32.0 °F 70% 30.30 in 10.0 mi ENE 8.1 mph - N/A   Overcast
7:55 PM 41.0 °F 35.2 °F 32.0 °F 70% 30.31 in 10.0 mi ENE 9.2 mph - N/A   Overcast
8:15 PM 41.0 °F 35.2 °F 32.0 °F 70% 30.31 in 10.0 mi ENE 9.2 mph - N/A   Overcast
8:35 PM 41.0 °F 35.2 °F 32.0 °F 70% 30.32 in 10.0 mi East 9.2 mph - N/A   Overcast
8:55 PM 41.0 °F 36.4 °F 32.0 °F 70% 30.33 in 10.0 mi ENE 6.9 mph - N/A   Overcast
9:35 PM 41.0 °F 34.7 °F 32.0 °F 70% 30.34 in 10.0 mi ENE 10.4 mph - N/A   Overcast
9:55 PM 41.0 °F 35.8 °F 32.0 °F 70% 30.34 in 10.0 mi ENE 8.1 mph - N/A   Overcast
10:15 PM 41.0 °F 35.8 °F 32.0 °F 70% 30.35 in 10.0 mi NE 8.1 mph - N/A   Overcast
10:35 PM 41.0 °F 36.4 °F 32.0 °F 70% 30.35 in 10.0 mi NE 6.9 mph - N/A   Overcast
10:55 PM 41.0 °F 39.0 °F 33.8 °F 76% 30.34 in 10.0 mi ESE 3.5 mph - N/A   Overcast
11:15 PM 39.2 °F 37.0 °F 33.8 °F 81% 30.34 in 10.0 mi East 3.5 mph - N/A   Overcast
11:35 PM 37.4 °F 33.8 °F 32.0 °F 81% 30.34 in 10.0 mi East 4.6 mph - N/A   Mostly Cloudy
11:55 PM 39.2 °F 34.2 °F 33.8 °F 81% 30.35 in 10.0 mi ENE 6.9 mph - N/A   Mostly Cloudy